User: anonymous   Login
Location: Caltech
(34.1382°N, 118.1253°W)
Time: 15:25:11
(UTC-07:00)
Language:

Cosmos 1943 Rocket - Orbit

View from above orbital plane
View from above orbital plane
View from above satellite
View from above satellite

Ground track
Ground track

The orbit data is extracted from the following two-line orbital elements,

1 19120U 88039B   14294.83829392  .00000236  00000-0  13555-3 0  1888
2 19120 071.0164 212.9497 0023679 238.2711 177.4380 14.19047639368875
Epoch (UTC): 21 October 2014 20:07:08
Eccentricity: 0.0023679
inclination: 71.0164°
perigee height: 811 km
apogee height: 845 km
right ascension of ascending node: 212.9497°
argument of perigee: 238.2711°
revolutions per day: 14.19047639
mean anomaly at epoch: 177.4380°
orbit number at epoch: 36887

The dashed part of the orbit path shows where the satellite is in the earth's shadow,  

DLR